Probability
0 0 0 0 0 0 0 0 0 0 0 0 0 0 0 0 0 0 0 2 6 6 4 2 1 0 1 7 15 20 20 22 23 19 14 8 2 0 0 0 0 0 0 0 0 0 0 0 0
0 0 0 0 0 0 0 0 0 0 0 0 0 0 0 0 0 0 1 5 8 7 4 2 1 0 2 10 23 32 35 36 33 28 21 13 6 2 0 0 0 0 0 0 0 0 0 0 0
0 0 0 0 0 0 0 0 0 0 0 0 0 0 0 0 0 0 3 7 9 6 3 2 1 1 4 14 29 45 53 52 45 36 27 18 10 3 0 0 0 0 0 0 0 0 0 0 0
0 0 0 0 0 0 0 0 0 0 0 0 0 0 0 0 0 1 4 7 6 3 1 1 0 1 5 15 31 47 56 56 48 37 27 19 10 3 0 0 0 0 0 0 0 0 0 0 0
0 0 0 0 0 0 0 0 0 0 0 0 0 0 0 0 1 3 5 5 4 2 1 0 0 1 5 15 29 43 52 53 46 34 23 15 7 2 0 0 0 0 0 0 0 0 0 0 0
0 0 0 0 0 0 0 0 0 0 0 0 0 0 0 0 2 5 6 4 3 2 1 0 1 1 4 11 22 35 43 44 38 28 18 10 4 0 0 0 0 0 0 0 0 0 0 0 0
0 0 0 0 0 0 0 0 0 0 0 0 0 0 1 4 8 11 9 4 2 1 0 0 0 0 2 5 11 20 26 28 26 20 12 5 1 0 0 0 0 0 0 0 0 0 0 0 0
0 0 0 0 0 0 0 0 0 0 0 0 0 0 3 12 21 22 16 7 2 0 0 0 0 0 0 1 4 7 11 12 12 10 6 2 0 0 0 0 0 0 0 0 0 0 0 0 0
0 0 0 0 0 0 0 0 0 0 0 0 0 0 7 23 37 39 30 15 5 1 0 0 0 0 0 0 0 1 3 3 3 2 1 0 0 0 0 0 0 0 0 0 0 0 0 0 0
0 0 0 0 0 0 0 0 0 0 0 0 0 0 9 27 43 48 40 25 11 2 0 0 0 0 0 0 0 0 0 0 0 0 0 0 0 0 0 0 0 0 0 0 0 0 0 0 0
0 0 0 0 0 0 0 0 0 0 0 0 0 1 9 23 37 43 39 25 10 2 0 0 0 0 0 0 0 0 0 0 0 0 0 0 0 0 0 0 0 0 0 0 0 0 0 0 0
0 0 0 0 0 0 0 0 0 0 0 0 0 2 8 18 26 32 28 17 7 2 0 0 0 0 0 0 0 0 0 0 1 1 1 0 0 0 0 0 0 0 0 0 0 0 0 0 0
0 0 0 0 0 0 0 0 0 0 0 0 0 1 6 12 19 23 20 12 5 1 0 0 0 0 0 0 0 0 0 0 1 1 1 0 0 1 1 1 0 0 0 0 0 0 0 0 0
0 0 0 0 0 0 0 0 0 0 0 0 0 1 3 8 15 21 19 13 7 3 0 0 0 0 0 0 0 0 0 0 0 1 1 1 1 3 3 2 2 1 0 0 1 1 2 1 1
0 0 0 0 0 0 0 0 0 0 0 0 0 0 1 5 13 18 18 14 9 5 2 0 0 1 1 1 0 0 0 0 1 2 3 4 6 8 9 9 8 7 5 5 6 6 4 4 4
0 0 0 0 0 0 0 0 0 0 0 0 0 1 3 6 10 13 15 14 10 7 5 2 2 3 4 4 2 2 3 4 4 6 8 11 14 18 21 22 25 26 22 20 18 15 10 8 8
0 0 0 0 0 0 0 0 1 1 0 0 2 6 9 11 12 13 15 13 10 9 9 7 6 8 9 9 8 8 10 13 13 14 17 22 27 31 35 42 49 51 51 48 41 33 25 18 15
0 0 0 0 0 0 0 1 3 4 4 4 8 13 17 21 20 20 20 17 13 14 15 14 12 14 17 18 17 18 21 25 27 28 33 39 43 46 53 63 69 70 73 74 66 52 38 27 21
0 0 0 0 0 0 1 3 7 11 14 15 17 21 25 29 30 27 27 26 24 24 26 26 25 27 30 32 33 34 35 38 40 44 50 54 54 58 69 76 79 78 77 76 68 55 38 25 19
0 0 0 0 0 0 2 5 11 18 24 28 30 31 34 39 42 40 37 39 41 42 42 42 44 48 53 54 55 56 56 54 56 61 63 64 63 66 71 75 75 71 67 62 55 45 32 19 11
0 0 0 0 0 0 1 4 11 18 26 34 40 43 45 51 54 52 50 52 55 56 55 56 60 65 72 74 74 74 73 71 72 73 70 65 64 64 63 62 61 59 55 49 43 35 25 15 7
0 0 0 0 0 0 0 2 6 14 23 34 43 47 51 56 57 56 59 62 63 62 61 62 64 68 73 77 78 79 79 79 77 74 66 55 50 47 45 43 44 44 40 35 28 20 14 8 4
0 0 0 0 0 0 0 1 5 13 22 31 39 43 46 50 51 55 62 65 64 63 62 62 63 65 66 68 72 76 78 77 73 66 55 41 30 25 24 22 23 24 21 17 11 6 4 2 1
0 0 0 0 0 0 0 3 9 16 22 27 31 33 35 37 40 46 54 58 59 60 60 59 61 63 62 62 67 73 75 74 68 57 43 29 18 14 12 10 9 9 7 4 2 0 0 0 0
0 0 0 0 0 0 0 6 14 18 17 19 20 19 20 22 24 30 36 40 43 48 52 55 56 57 58 58 60 63 67 66 58 45 30 20 13 9 7 5 4 3 2 0 0 0 0 0 0
0 0 0 0 0 0 2 9 15 11 8 9 9 8 9 10 12 15 19 21 25 32 38 42 43 43 45 46 44 44 45 45 39 28 19 14 9 6 4 2 1 1 0 0 0 0 0 0 0
0 0 0 0 0 0 3 11 11 5 2 3 4 5 6 6 6 6 7 9 12 15 19 22 24 25 26 26 23 20 19 18 15 11 8 7 5 3 2 1 0 0 0 0 0 0 0 0 0
0 0 0 0 0 0 2 6 6 3 2 3 3 4 4 4 2 2 2 3 3 4 6 7 8 9 9 9 7 5 3 3 2 2 2 2 1 1 1 0 0 0 0 0 0 0 0 0 0
0 0 0 0 0 0 0 1 3 4 5 5 4 2 2 1 0 0 0 0 0 0 1 1 1 1 1 1 1 0 0 0 0 0 0 0 0 0 0 0 0 0 0 0 0 0 0 0 0
0 0 0 0 0 0 0 1 2 7 9 7 4 1 0 0 0 0 0 0 0 0 0 0 0 0 0 0 0 0 0 0 0 0 0 0 0 0 0 0 0 0 0 0 0 0 0 0 0
Wind_Speed
9 7 7 6 9 8 5 4 2 4 4 4 2 2 4 4 5 5 6 15 17 19 20 18 13 14 16 18 18 18 18 18 17 16 16 15 14 13 12 12 12 12 12 12 12 12 11 11 10
6 5 7 7 10 9 6 4 3 6 6 3 0 2 3 2 5 6 9 16 19 20 19 18 15 14 16 18 18 18 18 18 17 16 16 15 14 12 12 12 11 11 11 11 11 11 10 10 9
6 7 8 8 12 10 5 5 4 6 4 2 1 1 2 4 5 6 11 19 19 19 19 18 16 14 16 17 18 18 18 17 17 16 15 14 13 12 11 11 11 11 10 10 10 9 9 8 8
6 7 8 11 16 12 5 1 4 6 3 3 3 0 5 5 4 8 17 20 20 19 19 19 15 15 15 16 17 17 17 16 16 15 15 13 12 11 11 11 11 10 10 10 9 8 7 7 6
8 9 13 16 19 13 7 4 6 7 4 4 4 2 5 6 8 15 19 19 19 18 18 20 14 14 15 16 16 16 16 15 14 14 14 13 12 10 10 10 10 10 10 9 8 7 6 5 4
9 11 16 18 19 15 9 7 8 8 5 3 3 3 6 8 11 17 19 18 18 17 18 19 16 16 15 16 15 14 14 14 13 13 13 12 11 10 9 9 9 9 9 9 8 6 5 4 4
14 15 20 21 18 17 12 8 10 8 6 4 4 2 7 10 13 17 17 17 17 17 17 18 18 17 15 14 14 14 13 13 13 13 13 12 11 10 9 8 8 8 8 8 7 6 5 4 3
11 15 23 22 20 18 12 9 10 9 7 3 3 3 4 12 15 16 16 16 16 16 16 17 17 17 16 16 15 14 13 13 13 13 13 12 11 9 8 9 8 7 7 7 6 5 4 3 3
9 15 20 21 19 17 10 11 11 7 8 6 3 4 5 17 18 17 16 15 15 15 15 16 17 16 16 16 15 15 14 12 13 13 12 12 11 10 9 7 8 6 6 6 6 5 4 4 5
10 17 22 16 13 13 10 12 12 10 12 10 6 3 9 18 19 20 19 18 18 18 17 16 16 16 16 13 13 12 12 12 11 11 12 10 7 5 5 11 6 5 5 6 5 5 6 8 6
11 17 15 10 9 11 12 13 13 15 16 13 9 7 13 17 19 19 19 19 19 18 17 17 16 15 15 11 11 8 8 9 10 10 11 7 6 6 5 6 8 8 8 7 8 8 6 5 3
11 11 11 12 11 13 15 15 16 17 18 13 7 6 14 18 20 20 20 19 18 18 18 17 16 14 14 12 10 9 8 8 8 9 10 8 5 5 5 4 5 5 5 4 4 4 4 4 5
13 12 12 14 14 14 14 16 16 18 17 15 12 10 15 18 19 19 18 18 18 18 18 17 16 14 12 10 9 9 8 9 9 8 9 8 7 6 6 5 4 5 4 5 5 4 4 5 6
7 9 11 13 14 14 15 16 17 17 16 16 15 14 15 18 20 19 18 18 17 17 17 16 15 14 13 10 9 8 8 7 8 8 10 10 7 6 6 6 5 5 4 4 4 4 4 5 3
8 10 12 13 13 13 13 17 19 18 14 14 14 13 14 16 18 19 19 17 17 16 16 15 15 14 14 13 12 9 8 9 8 8 9 10 9 7 6 6 6 5 5 5 5 4 4 4 4
9 11 11 9 11 11 12 13 11 11 13 14 12 11 12 14 17 17 17 16 15 15 15 15 13 15 14 12 11 9 9 9 8 7 8 10 10 8 7 6 6 5 5 5 4 5 5 4 4
10 10 7 7 8 9 13 8 4 3 9 10 9 9 10 12 14 15 16 16 15 14 15 15 15 15 15 13 11 10 8 8 8 7 7 9 10 10 8 6 5 5 5 5 5 5 5 4 4
7 7 6 6 6 7 10 4 3 1 4 6 7 7 8 10 11 11 12 14 13 13 13 14 14 14 13 11 10 9 9 8 8 7 7 8 8 9 8 6 5 5 5 4 4 4 3 3 3
3 5 5 3 2 4 5 3 4 4 2 3 4 5 6 6 7 9 10 11 12 12 13 14 14 14 11 10 10 10 9 8 8 7 8 8 8 8 8 5 5 5 5 5 5 4 5 4 4
8 9 7 5 4 3 4 5 6 7 8 7 5 4 4 5 5 5 7 9 10 11 11 12 14 14 14 11 9 8 8 7 7 6 6 7 7 7 6 6 5 5 5 6 6 6 4 4 4
10 10 7 4 3 6 7 6 6 7 9 9 9 8 7 6 5 4 4 4 6 7 9 9 10 12 13 12 8 7 6 5 6 7 6 5 5 5 5 6 6 6 6 6 7 7 7 5 5
10 8 8 7 9 9 10 7 8 7 8 10 10 10 10 9 7 5 3 2 2 3 4 6 7 9 10 10 10 11 9 8 7 5 4 4 3 3 3 5 5 5 4 5 6 6 5 6 5
8 4 7 8 8 7 9 7 9 7 7 9 10 10 11 10 9 8 7 5 3 1 1 2 4 6 7 9 10 10 9 6 4 5 6 5 4 4 4 3 4 4 3 3 4 4 4 3 3
7 6 7 8 9 10 7 7 7 5 7 8 9 10 10 10 10 10 10 9 8 6 4 3 3 2 2 5 6 8 7 6 7 7 6 5 4 4 5 5 4 4 4 4 4 4 4 3 3
10 10 9 11 10 7 6 4 7 8 9 10 10 10 10 10 11 11 11 11 10 10 8 6 5 4 3 3 2 2 3 5 6 6 6 6 5 4 6 6 6 6 6 6 6 6 6 6 6
12 13 9 7 9 8 8 5 9 10 10 11 11 11 11 11 11 11 12 12 12 12 11 9 9 8 7 6 5 5 5 4 4 6 6 6 5 6 8 9 9 9 9 8 8 8 8 7 7
9 11 7 6 4 5 8 9 8 9 11 11 11 11 11 10 11 12 12 12 12 12 12 11 11 11 11 11 11 10 9 9 9 9 9 8 8 8 11 11 11 11 11 10 9 8 8 8 7
7 5 6 8 7 7 9 9 9 12 11 10 10 11 10 10 11 11 11 12 12 12 13 14 14 14 14 13 12 11 13 13 12 12 13 13 12 12 13 12 12 12 12 11 10 9 9 9 7
7 7 7 7 6 5 7 6 5 10 11 11 11 11 10 10 10 10 11 11 13 13 14 14 15 15 15 14 14 15 14 14 14 14 14 14 13 13 14 13 13 12 12 11 10 9 9 8 7
3 3 6 7 6 7 2 8 6 10 12 12 12 11 11 11 11 11 12 13 14 15 15 15 15 15 15 15 15 15 15 15 15 15 14 14 14 13 13 13 12 12 11 10 9 8 7 7 6
Wind_Direction
254 241 245 253 250 239 218 119 67 36 37 25 342 311 313 325 335 34 101 152 145 146 145 148 144 146 147 147 146 145 145 144 143 142 139 136 134 132 131 130 128 126 123 121 119 118 118 118 117
272 244 244 249 257 240 181 135 75 29 21 349 247 242 265 45 50 90 136 146 148 146 149 154 143 146 146 146 144 144 145 144 143 141 138 137 135 134 133 132 130 127 124 122 121 121 121 122 122
247 241 258 249 244 245 173 127 34 10 40 347 335 307 348 48 99 128 140 150 150 148 151 143 148 146 145 145 144 145 144 143 142 140 139 136 136 135 135 134 131 127 123 122 123 124 125 126 128
229 224 237 245 240 233 233 143 347 339 22 12 319 147 89 56 109 134 145 155 152 151 151 145 154 148 145 145 146 145 144 143 142 140 138 136 136 137 137 135 131 127 123 121 123 124 125 127 130
234 241 237 237 239 233 230 267 299 311 334 352 320 299 99 87 113 135 151 156 154 153 151 149 154 149 147 147 147 146 145 143 141 139 138 137 137 137 136 134 130 126 123 122 121 121 121 121 123
225 233 238 236 233 231 229 251 273 286 302 330 317 302 88 115 134 146 154 158 156 154 152 149 155 154 153 152 150 147 145 143 141 139 138 137 137 137 137 134 130 126 124 123 122 121 116 109 104
236 232 239 241 239 232 225 244 260 272 284 334 333 297 112 133 140 151 155 161 157 158 154 156 162 162 160 156 154 150 148 145 143 141 140 141 142 142 141 135 131 128 127 127 127 125 118 106 94
251 245 243 241 241 240 229 236 249 265 285 350 307 298 119 140 148 153 158 163 161 163 159 161 167 167 168 167 162 158 154 151 148 148 148 147 147 151 150 158 138 136 135 134 133 132 127 122 108
238 239 239 236 239 245 235 239 243 254 264 264 281 334 74 142 153 158 161 166 167 168 166 169 170 171 175 171 164 167 164 157 157 159 156 164 175 168 175 152 138 149 146 143 143 144 146 172 162
225 237 241 247 258 256 232 237 249 251 251 242 223 140 136 154 162 167 170 173 174 174 175 175 176 174 178 171 166 177 178 171 184 172 172 190 175 180 179 127 159 166 163 163 158 162 189 222 189
230 244 252 245 252 261 254 246 251 254 255 247 243 179 164 171 175 177 178 179 179 177 181 180 180 180 180 174 173 180 184 175 191 181 182 186 176 182 188 171 175 186 192 195 167 197 210 213 212
237 244 254 253 248 247 252 254 252 246 252 258 259 204 180 185 186 185 183 182 181 181 185 184 181 183 188 182 180 183 186 180 188 181 191 183 192 194 193 201 196 192 199 202 218 222 207 224 217
234 240 238 243 246 248 253 252 253 254 251 253 250 224 201 196 193 189 186 183 183 184 186 187 187 184 190 188 190 191 193 188 187 184 192 197 196 199 194 202 213 223 211 201 222 232 215 226 219
242 243 246 245 242 239 243 247 243 245 245 242 236 226 211 202 195 186 184 185 186 186 187 187 191 187 191 194 199 197 199 196 197 193 194 200 209 201 202 205 205 222 225 235 233 227 222 228 227
253 252 247 236 229 228 233 242 236 238 235 229 227 220 211 201 192 187 185 185 186 187 188 190 192 192 195 200 203 202 205 200 206 199 198 202 212 203 209 218 209 216 219 218 230 222 229 222 208
226 233 236 205 209 210 223 236 213 220 218 219 221 209 200 193 192 187 185 185 186 187 188 193 196 196 198 206 207 209 210 206 210 207 202 205 214 209 213 221 217 208 215 215 214 224 220 215 213
212 223 214 171 190 196 218 231 139 188 206 206 204 196 188 182 190 185 185 185 187 188 188 193 201 201 201 204 209 217 213 213 215 213 213 207 213 213 218 225 218 211 215 217 221 213 226 214 205
199 207 194 179 155 209 212 207 94 97 192 189 185 182 176 178 184 180 186 184 187 189 192 197 201 205 204 204 208 217 217 213 216 217 218 215 213 214 218 220 210 214 214 212 214 210 216 215 185
263 245 213 178 154 226 193 153 78 55 83 129 153 158 162 167 161 170 181 186 187 189 192 200 203 201 202 205 208 209 213 214 213 215 212 211 214 213 213 214 199 207 216 212 195 191 187 191 173
237 236 220 193 157 235 165 127 88 61 58 46 49 72 99 119 126 146 172 184 189 191 196 199 202 200 202 205 207 212 216 216 212 207 200 203 207 211 210 208 206 203 209 206 193 188 188 184 195
227 240 233 217 201 200 190 158 120 88 71 62 56 55 59 62 75 99 131 166 186 195 202 204 204 203 203 201 198 200 204 211 205 200 195 193 191 196 204 213 213 212 205 200 198 194 196 188 190
228 225 243 237 235 193 215 184 130 114 86 66 58 56 57 57 56 58 72 107 165 197 208 208 204 203 200 197 201 199 204 209 207 196 179 161 155 166 180 203 204 209 204 195 194 196 203 200 186
244 228 233 233 238 230 212 221 131 136 101 76 62 57 57 54 52 50 45 47 45 47 163 185 187 199 199 200 203 206 215 217 187 166 154 137 126 126 137 156 159 161 163 159 158 173 187 194 186
234 221 219 231 227 219 207 221 130 107 100 95 77 64 58 56 53 49 46 44 44 43 51 73 102 112 180 196 206 210 216 203 168 166 155 136 115 99 96 99 102 105 110 114 116 122 119 106 102
218 221 205 200 208 194 168 193 99 88 85 94 89 77 64 56 51 45 42 41 41 39 38 48 68 69 68 97 129 169 183 173 164 157 142 124 110 100 91 89 85 81 81 84 89 89 85 87 92
209 229 239 223 199 162 169 140 108 105 99 95 90 82 70 60 55 49 44 42 42 41 41 45 54 56 55 63 71 70 83 94 95 99 100 96 93 89 88 84 80 77 77 78 76 77 77 76 76
205 226 258 272 227 184 137 118 124 131 117 106 97 85 73 65 59 55 51 47 45 45 46 49 57 57 55 58 64 64 65 75 80 81 83 82 81 81 80 80 79 75 72 71 70 69 68 69 68
267 233 218 240 219 195 160 166 156 156 133 117 103 93 83 72 64 58 55 53 51 50 52 52 55 58 57 59 62 67 67 70 74 76 77 77 76 76 78 77 75 73 70 68 68 67 63 64 58
202 208 235 244 271 246 179 131 103 144 133 122 106 96 88 78 69 64 61 60 60 57 56 57 58 60 59 61 65 67 68 69 71 73 73 74 74 74 75 74 72 69 65 63 64 64 60 61 55
260 259 241 245 219 264 261 100 86 120 118 114 105 96 87 80 75 72 68 64 62 60 59 59 60 63 64 66 68 69 70 70 72 72 72 75 76 75 76 75 72 69 65 61 61 62 59 58 52